Time,TemperatureF,DewpointF,PressureIn,WindDirection,WindDirectionDegrees,WindSpeedMPH,WindSpeedGustMPH,Humidity,HourlyPrecipIn,Conditions,Clouds,dailyrainin,SoftwareType,DateUTC
2013-09-11 00:11:00,79.1,65.0,29.96,South,189,3.0,9.0,62,0.00,,---,0.00,VWS V14.01,2013-09-11 05:11:00,
2013-09-11 00:26:00,78.7,64.6,29.96,South,182,3.0,7.0,62,0.00,,---,0.00,VWS V14.01,2013-09-11 05:26:00,
2013-09-11 00:41:00,78.1,64.5,29.96,South,186,2.0,6.0,63,0.00,,---,0.00,VWS V14.01,2013-09-11 05:41:00,
2013-09-11 00:56:00,77.3,64.2,29.97,SSW,197,2.0,4.0,64,0.00,,---,0.00,VWS V14.01,2013-09-11 05:56:00,
2013-09-11 01:11:00,76.8,64.2,29.97,SSW,197,2.0,4.0,65,0.00,,---,0.00,VWS V14.01,2013-09-11 06:11:00,
2013-09-11 01:26:00,76.4,63.8,29.97,SSW,205,4.0,6.0,65,0.00,,---,0.00,VWS V14.01,2013-09-11 06:26:00,
2013-09-11 01:41:00,76.2,63.6,29.97,South,186,4.0,9.0,65,0.00,,---,0.00,VWS V14.01,2013-09-11 06:41:00,
2013-09-11 01:56:00,76.6,64.0,29.97,SSW,204,4.0,9.0,65,0.00,,---,0.00,VWS V14.01,2013-09-11 06:56:00,
2013-09-11 02:11:00,76.4,63.8,29.98,SSW,195,1.0,7.0,65,0.00,,---,0.00,VWS V14.01,2013-09-11 07:11:00,
2013-09-11 02:26:00,75.6,63.5,29.97,SSW,202,0.0,5.0,66,0.00,,---,0.00,VWS V14.01,2013-09-11 07:26:00,
2013-09-11 02:41:00,75.0,63.7,29.97,SW,219,1.0,3.0,68,0.00,,---,0.00,VWS V14.01,2013-09-11 07:41:00,
2013-09-11 02:56:00,74.8,63.5,29.98,SSW,212,2.0,7.0,68,0.00,,---,0.00,VWS V14.01,2013-09-11 07:56:00,
2013-09-11 03:11:00,74.9,63.6,29.98,SSW,198,1.0,9.0,68,0.00,,---,0.00,VWS V14.01,2013-09-11 08:11:00,
2013-09-11 03:26:00,74.6,63.8,29.98,SSW,199,7.0,8.0,69,0.00,,---,0.00,VWS V14.01,2013-09-11 08:26:00,
2013-09-11 03:41:00,73.8,63.4,29.98,South,188,1.0,7.0,70,0.00,,---,0.00,VWS V14.01,2013-09-11 08:41:00,
2013-09-11 03:56:00,73.3,63.3,29.98,South,189,1.0,5.0,71,0.00,,---,0.00,VWS V14.01,2013-09-11 08:56:00,
2013-09-11 04:11:00,72.7,63.2,29.98,South,190,1.0,5.0,72,0.00,,---,0.00,VWS V14.01,2013-09-11 09:11:00,
2013-09-11 04:26:00,72.3,63.2,29.98,South,183,1.0,5.0,73,0.00,,---,0.00,VWS V14.01,2013-09-11 09:26:00,
2013-09-11 04:41:00,72.4,63.3,29.98,South,175,1.0,7.0,73,0.00,,---,0.00,VWS V14.01,2013-09-11 09:41:00,
2013-09-11 04:56:00,72.2,63.1,29.98,South,186,2.0,5.0,73,0.00,,---,0.00,VWS V14.01,2013-09-11 09:56:00,
2013-09-11 05:11:00,71.4,63.1,29.99,NNW,329,0.0,12.0,75,0.00,,---,0.00,VWS V14.01,2013-09-11 10:11:00,
2013-09-11 05:26:00,70.6,63.0,30.00,NW,315,1.0,4.0,77,0.00,,---,0.00,VWS V14.01,2013-09-11 10:26:00,
2013-09-11 05:41:00,70.1,63.3,30.00,NW,316,0.0,3.0,79,0.00,,---,0.00,VWS V14.01,2013-09-11 10:41:00,
2013-09-11 05:56:00,69.4,63.0,30.00,NW,316,1.0,1.0,80,0.00,,---,0.00,VWS V14.01,2013-09-11 10:56:00,
2013-09-11 06:11:00,68.0,62.3,30.00,WSW,246,0.0,4.0,82,0.00,,---,0.00,VWS V14.01,2013-09-11 11:11:00,
2013-09-11 06:26:00,67.5,62.5,30.00,WSW,246,0.0,0.0,84,0.00,,---,0.00,VWS V14.01,2013-09-11 11:26:00,
2013-09-11 06:41:00,67.2,62.5,30.01,WSW,246,0.0,0.0,85,0.00,,---,0.00,VWS V14.01,2013-09-11 11:41:00,
2013-09-11 06:56:00,66.9,62.6,30.01,WSW,246,0.0,0.0,86,0.00,,---,0.00,VWS V14.01,2013-09-11 11:56:00,
2013-09-11 07:11:00,66.6,62.0,30.01,WSW,246,0.0,0.0,85,0.00,,---,0.00,VWS V14.01,2013-09-11 12:11:00,
2013-09-11 07:26:00,66.5,62.5,30.02,WSW,246,0.0,0.0,87,0.00,,---,0.00,VWS V14.01,2013-09-11 12:26:00,
2013-09-11 07:41:00,66.7,63.0,30.02,WSW,246,0.0,0.0,88,0.00,,---,0.00,VWS V14.01,2013-09-11 12:41:00,
2013-09-11 07:56:00,67.0,63.3,30.01,WSW,246,0.0,0.0,88,0.00,,---,0.00,VWS V14.01,2013-09-11 12:56:00,
2013-09-11 08:11:00,68.9,64.9,30.02,WSW,246,0.0,0.0,87,0.00,,---,0.00,VWS V14.01,2013-09-11 13:11:00,
2013-09-11 08:26:00,71.4,65.6,30.02,WSW,246,0.0,0.0,82,0.00,,---,0.00,VWS V14.01,2013-09-11 13:26:00,
2013-09-11 08:41:00,73.5,66.6,30.02,WSW,238,1.0,4.0,79,0.00,,---,0.00,VWS V14.01,2013-09-11 13:41:00,
2013-09-11 08:56:00,75.6,67.5,30.02,SW,236,1.0,4.0,76,0.00,,---,0.00,VWS V14.01,2013-09-11 13:56:00,
2013-09-11 09:11:00,77.2,67.5,30.02,SSW,209,0.0,5.0,72,0.00,,---,0.00,VWS V14.01,2013-09-11 14:11:00,
2013-09-11 09:26:00,78.5,67.1,30.02,SSW,207,0.0,5.0,68,0.00,,---,0.00,VWS V14.01,2013-09-11 14:26:00,
2013-09-11 09:41:00,79.7,66.5,30.02,SSW,206,0.0,5.0,64,0.00,,---,0.00,VWS V14.01,2013-09-11 14:41:00,
2013-09-11 09:56:00,80.6,66.8,30.02,SSW,206,0.0,6.0,63,0.00,,---,0.00,VWS V14.01,2013-09-11 14:56:00,
2013-09-11 10:11:00,81.9,67.1,29.85,SSW,200,1.0,8.0,61,0.00,,---,0.00,VWS V14.01,2013-09-11 15:11:00,
2013-09-11 10:26:00,83.1,66.8,29.95,SW,217,4.0,9.0,58,0.00,,---,0.00,VWS V14.01,2013-09-11 15:26:00,
2013-09-11 10:41:00,84.5,67.1,30.02,South,180,2.0,12.0,56,0.00,,---,0.00,VWS V14.01,2013-09-11 15:41:00,
2013-09-11 10:56:00,85.7,67.7,30.01,South,175,9.0,11.0,55,0.00,,---,0.00,VWS V14.01,2013-09-11 15:56:00,
2013-09-11 11:11:00,86.8,65.9,30.01,SW,229,9.0,16.0,50,0.00,,---,0.00,VWS V14.01,2013-09-11 16:11:00,
2013-09-11 11:26:00,87.3,67.0,30.01,SSW,204,5.0,14.0,51,0.00,,---,0.00,VWS V14.01,2013-09-11 16:26:00,
2013-09-11 11:41:00,88.0,67.6,30.01,SSW,202,4.0,13.0,51,0.00,,---,0.00,VWS V14.01,2013-09-11 16:41:00,
2013-09-11 11:56:00,88.4,66.8,30.01,SSW,204,7.0,14.0,49,0.00,,---,0.00,VWS V14.01,2013-09-11 16:56:00,
2013-09-11 12:11:00,88.7,67.1,30.00,WSW,252,7.0,17.0,49,0.00,,---,0.00,VWS V14.01,2013-09-11 17:11:00,
2013-09-11 12:26:00,88.6,67.0,30.00,SW,215,5.0,17.0,49,0.00,,---,0.00,VWS V14.01,2013-09-11 17:26:00,
2013-09-11 12:41:00,89.3,68.8,30.00,SW,215,5.0,15.0,51,0.00,,---,0.00,VWS V14.01,2013-09-11 17:41:00,
2013-09-11 12:56:00,89.7,68.6,30.00,SW,222,2.0,16.0,50,0.00,,---,0.00,VWS V14.01,2013-09-11 17:56:00,
2013-09-11 13:11:00,90.3,68.0,30.00,SSW,206,3.0,14.0,48,0.00,,---,0.00,VWS V14.01,2013-09-11 18:11:00,
2013-09-11 13:26:00,91.0,68.0,29.99,SSW,213,8.0,15.0,47,0.00,,---,0.00,VWS V14.01,2013-09-11 18:26:00,
2013-09-11 13:41:00,91.6,68.5,29.99,SSW,211,4.0,13.0,47,0.00,,---,0.00,VWS V14.01,2013-09-11 18:41:00,
2013-09-11 13:56:00,92.0,68.3,29.98,South,191,0.0,14.0,46,0.00,,---,0.00,VWS V14.01,2013-09-11 18:56:00,
2013-09-11 14:11:00,92.3,68.5,29.98,SSE,167,6.0,12.0,46,0.00,,---,0.00,VWS V14.01,2013-09-11 19:11:00,
2013-09-11 14:26:00,92.8,68.4,29.97,SW,225,6.0,17.0,45,0.00,,---,0.00,VWS V14.01,2013-09-11 19:26:00,
2013-09-11 14:41:00,92.8,68.4,29.97,SW,231,8.0,15.0,45,0.00,,---,0.00,VWS V14.01,2013-09-11 19:41:00,
2013-09-11 14:56:00,93.4,68.9,29.96,SSW,212,4.0,10.0,45,0.00,,---,0.00,VWS V14.01,2013-09-11 19:56:00,
2013-09-11 15:11:00,93.1,66.6,29.96,SW,221,6.0,12.0,42,0.00,,---,0.00,VWS V14.01,2013-09-11 20:11:00,
2013-09-11 15:26:00,91.6,67.3,29.95,SW,226,5.0,8.0,45,0.00,,---,0.00,VWS V14.01,2013-09-11 20:26:00,
2013-09-11 15:41:00,90.8,67.8,29.95,SW,226,1.0,7.0,47,0.00,,---,0.00,VWS V14.01,2013-09-11 20:41:00,
2013-09-11 15:56:00,89.1,69.8,29.95,NW,319,5.0,10.0,53,0.00,,---,0.00,VWS V14.01,2013-09-11 20:56:00,
2013-09-11 16:11:00,87.1,70.5,29.95,NW,326,4.0,8.0,58,0.00,,---,0.00,VWS V14.01,2013-09-11 21:11:00,
2013-09-11 16:26:00,86.6,70.6,29.94,NW,324,11.0,12.0,59,0.00,,---,0.00,VWS V14.01,2013-09-11 21:26:00,
2013-09-11 16:41:00,86.5,69.0,29.94,NNW,335,4.0,12.0,56,0.00,,---,0.00,VWS V14.01,2013-09-11 21:41:00,
2013-09-11 16:56:00,86.8,70.3,29.93,North,360,3.0,11.0,58,0.00,,---,0.00,VWS V14.01,2013-09-11 21:56:00,
2013-09-11 17:11:00,86.6,70.1,29.93,North,355,2.0,8.0,58,0.00,,---,0.00,VWS V14.01,2013-09-11 22:11:00,
2013-09-11 17:26:00,86.2,70.2,29.93,North,355,0.0,5.0,59,0.00,,---,0.00,VWS V14.01,2013-09-11 22:26:00,
2013-09-11 17:41:00,86.5,70.5,29.93,North,355,0.0,5.0,59,0.00,,---,0.00,VWS V14.01,2013-09-11 22:41:00,
2013-09-11 17:56:00,86.1,72.0,29.93,North,360,2.0,5.0,63,0.00,,---,0.00,VWS V14.01,2013-09-11 22:56:00,
2013-09-11 18:11:00,85.4,71.4,29.93,NNE,17,2.0,6.0,63,0.00,,---,0.00,VWS V14.01,2013-09-11 23:11:00,
2013-09-11 18:26:00,84.7,71.6,29.93,NNE,17,1.0,3.0,65,0.00,,---,0.00,VWS V14.01,2013-09-11 23:26:00,
2013-09-11 18:41:00,84.3,71.7,29.93,NNE,17,0.0,2.0,66,0.00,,---,0.00,VWS V14.01,2013-09-11 23:41:00,
2013-09-11 18:56:00,84.2,72.1,29.93,NNE,17,1.0,4.0,67,0.00,,---,0.00,VWS V14.01,2013-09-11 23:56:00,
2013-09-11 19:11:00,83.6,72.4,29.93,NNE,17,2.0,4.0,69,0.00,,---,0.00,VWS V14.01,2013-09-12 00:11:00,
2013-09-11 19:26:00,82.4,71.2,29.94,NNE,17,1.0,3.0,69,0.00,,---,0.00,VWS V14.01,2013-09-12 00:26:00,
2013-09-11 19:41:00,81.3,71.0,29.94,NNE,17,0.0,4.0,71,0.00,,---,0.00,VWS V14.01,2013-09-12 00:41:00,
2013-09-11 19:56:00,80.7,70.8,29.95,NNE,17,0.0,1.0,72,0.00,,---,0.00,VWS V14.01,2013-09-12 00:56:00,
2013-09-11 20:11:00,80.3,70.9,29.96,NNE,17,0.0,0.0,73,0.00,,---,0.00,VWS V14.01,2013-09-12 01:11:00,
2013-09-11 20:26:00,80.4,71.0,29.94,North,9,5.0,6.0,73,0.00,,---,0.00,VWS V14.01,2013-09-12 01:26:00,
2013-09-11 20:41:00,80.2,70.8,29.95,NNW,335,2.0,8.0,73,0.00,,---,0.00,VWS V14.01,2013-09-12 01:41:00,
2013-09-11 20:56:00,79.4,70.4,29.98,NNE,33,2.0,6.0,74,0.00,,---,0.00,VWS V14.01,2013-09-12 01:56:00,
2013-09-11 21:11:00,79.0,69.2,29.98,NNE,28,3.0,6.0,72,0.00,,---,0.00,VWS V14.01,2013-09-12 02:11:00,
2013-09-11 21:41:00,78.2,69.6,29.99,NNE,22,1.0,4.0,75,0.00,,---,0.00,VWS V14.01,2013-09-12 02:41:00,
2013-09-11 21:56:00,77.7,69.5,29.99,WNW,298,1.0,8.0,76,0.00,,---,0.00,VWS V14.01,2013-09-12 02:56:00,
2013-09-11 22:11:00,77.5,69.7,29.98,NNE,24,0.0,4.0,77,0.00,,---,0.00,VWS V14.01,2013-09-12 03:11:00,
2013-09-11 22:26:00,77.0,69.6,29.98,NNE,24,0.0,3.0,78,0.00,,---,0.00,VWS V14.01,2013-09-12 03:26:00,
2013-09-11 22:41:00,76.3,69.7,29.98,NNE,24,0.0,1.0,80,0.00,,---,0.00,VWS V14.01,2013-09-12 03:41:00,
2013-09-11 22:56:00,75.9,69.7,29.97,NNE,24,0.0,0.0,81,0.00,,---,0.00,VWS V14.01,2013-09-12 03:56:00,
2013-09-11 23:11:00,75.4,69.5,29.97,NNE,24,0.0,3.0,82,0.00,,---,0.00,VWS V14.01,2013-09-12 04:11:00,
2013-09-11 23:26:00,74.9,69.4,29.96,NNE,24,2.0,2.0,83,0.00,,---,0.00,VWS V14.01,2013-09-12 04:26:00,
2013-09-11 23:41:00,74.4,69.3,29.96,NNE,24,0.0,2.0,84,0.00,,---,0.00,VWS V14.01,2013-09-12 04:41:00,
2013-09-11 23:56:00,74.1,69.3,29.96,NNE,24,0.0,0.0,85,0.00,,---,0.00,VWS V14.01,2013-09-12 04:56:00,